Temp
19 19 19 21 22 22 22 23 24 25 25 25 25 26 27 27 29 28 25 34 34 32 30 28 28 28 28 28 29 30 28 29 32 34 35 32 33 33 34 33 34 32 30 29 31
18 19 20 21 21 22 22 22 23 24 25 26 26 26 27 27 26 25 35 34 34 33 31 28 29 29 28 29 31 29 27 32 34 36 35 34 35 33 33 33 31 29 30 30 30
18 19 20 20 21 21 22 22 23 24 24 25 26 27 27 28 26 31 35 35 34 34 33 32 32 32 30 32 32 31 30 34 36 38 36 34 34 33 32 31 30 29 29 29 29
18 18 19 20 21 21 22 23 24 24 24 25 25 26 27 27 30 34 34 35 33 32 32 32 32 31 31 31 33 33 34 35 36 39 36 34 32 32 33 33 32 30 30 29 29
18 18 18 19 20 21 22 23 24 24 24 24 24 25 27 25 27 34 34 33 32 31 29 30 31 31 31 32 33 33 34 35 35 35 36 34 33 34 33 34 32 31 30 29 28
18 18 19 20 20 21 22 23 24 25 25 24 24 24 24 26 32 32 33 32 31 29 30 30 31 32 32 32 32 33 33 34 35 35 35 35 36 33 33 34 32 31 30 29 29
16 17 18 19 20 21 22 23 25 25 25 25 25 23 21 26 32 31 31 32 32 31 29 31 32 32 31 31 33 33 32 33 35 34 35 36 35 35 34 34 32 31 30 30 29
15 16 17 18 19 20 21 23 25 26 25 25 25 21 20 30 31 32 31 31 32 31 31 33 33 31 32 33 31 31 31 30 34 34 35 35 33 35 33 33 31 31 31 30 29
16 16 16 18 19 19 21 24 26 26 24 23 22 21 22 30 30 34 31 30 31 32 32 32 33 31 32 30 27 27 28 30 32 35 34 36 34 35 34 33 31 31 31 31 30
16 17 18 19 20 20 22 25 26 25 23 21 22 23 25 29 31 33 34 33 30 30 31 31 30 29 27 26 26 28 28 29 31 34 34 35 34 34 33 33 32 32 31 31 30
15 16 17 18 20 20 22 24 20 21 24 24 25 25 27 29 29 31 33 33 32 31 29 29 28 27 28 28 29 29 29 29 32 34 34 34 33 36 35 33 33 32 31 31 31
14 15 16 18 20 20 20 18 22 23 19 24 26 27 28 28 28 29 31 30 30 30 29 29 27 30 31 31 31 30 30 30 32 34 32 33 33 33 33 34 33 32 32 32 32
14 14 15 17 20 20 18 21 22 22 20 23 25 26 26 27 28 29 30 30 29 30 30 29 31 32 31 31 31 30 29 31 31 33 33 33 31 31 33 34 34 32 33 33 32
15 14 14 15 20 17 19 22 23 22 18 21 25 26 27 28 27 31 31 30 30 31 30 29 32 32 32 32 31 28 32 32 32 31 29 31 28 29 31 31 32 32 32 32 32
14 14 14 14 14 13 22 22 22 23 19 27 28 30 30 27 29 30 32 30 29 30 29 30 31 30 31 32 33 31 33 32 33 31 29 30 27 27 30 32 32 33 32 32 32
14 14 14 14 12 20 20 21 21 19 20 26 29 28 28 29 28 30 32 31 31 30 31 30 32 32 32 33 33 34 32 30 27 26 27 28 28 31 29 32 32 33 31 32 32
14 15 15 12 15 21 20 18 18 19 24 26 26 26 26 29 28 28 29 29 28 28 28 30 30 32 33 31 32 33 27 26 27 26 25 28 28 30 31 30 32 32 31 32 33
14 16 17 17 20 19 19 17 20 23 24 26 26 26 27 28 29 29 29 27 29 28 27 26 28 30 33 30 31 30 28 25 26 26 27 28 28 31 32 34 34 31 32 31 32
15 17 16 22 21 18 15 16 18 22 25 25 25 24 26 28 28 27 28 29 29 28 28 27 28 31 32 33 32 31 30 27 26 26 25 26 28 30 31 32 31 32 31 30 29
13 13 16 22 22 19 15 16 20 24 24 25 23 25 25 26 25 25 26 29 30 31 29 30 27 31 33 33 34 31 31 30 23 28 27 26 28 28 31 31 30 30 29 27 27
13 12 22 23 21 15 16 16 22 24 25 25 24 24 25 25 25 25 26 28 29 29 29 29 26 29 29 31 30 30 29 29 26 24 25 25 27 29 27 29 28 28 27 27 27
11 13 22 22 17 14 16 20 23 25 26 24 25 26 26 25 24 25 26 27 30 28 27 27 26 25 30 31 32 32 32 29 29 27 24 25 27 27 27 27 29 28 27 27 26
8 10 23 22 17 16 18 21 23 24 25 26 26 27 25 25 24 25 26 29 29 27 27 27 25 24 27 29 32 31 31 31 26 23 25 25 26 27 25 25 28 28 27 25 25
8 13 15 15 15 19 18 20 22 25 25 25 25 25 24 23 24 24 25 28 29 29 26 25 23 24 24 26 28 30 33 31 27 28 27 25 27 27 25 24 23 24 24 25 25
8 13 16 14 16 16 19 20 21 22 23 22 23 24 24 23 22 22 24 26 28 28 28 23 23 23 24 27 28 32 32 31 30 29 29 28 27 25 22 22 22 23 25 26 26
10 13 12 13 15 17 18 20 22 23 23 22 22 23 23 24 22 21 22 23 27 28 26 23 23 22 26 26 28 31 28 30 24 23 25 27 26 23 23 22 23 24 25 25 26
14 15 12 13 14 16 17 19 21 22 23 24 23 22 22 22 21 21 20 21 24 25 25 23 21 22 25 24 27 26 25 24 22 21 20 25 21 22 23 24 23 22 24 24 23
Height
823 820 817 813 810 807 804 800 796 793 789 786 782 778 774 769 764 761 758 751 752 756 759 763 768 770 773 771 768 766 800 804 789 770 762 746 747 739 735 748 742 745 751 755 762
823 819 815 812 809 806 802 798 794 791 787 783 779 776 773 766 760 754 746 746 749 752 756 759 762 764 771 766 764 776 797 775 756 741 749 744 737 741 746 748 750 749 748 756 759
823 819 815 811 806 803 799 796 792 789 786 782 778 774 771 766 761 748 744 744 747 750 752 753 754 758 764 754 757 761 778 748 737 723 727 736 736 733 743 757 745 748 751 755 757
824 820 816 811 806 801 796 793 789 786 783 780 777 773 769 766 784 744 744 745 746 749 750 750 751 761 763 767 751 764 748 741 734 724 733 738 730 739 733 732 725 731 734 748 755
823 819 815 810 805 800 795 790 786 783 781 778 775 773 769 770 757 744 743 744 745 746 746 749 754 756 767 757 752 756 746 736 727 724 721 726 731 728 729 721 724 734 739 744 751
823 818 813 808 803 797 791 786 782 778 776 774 772 772 771 777 745 743 742 741 742 744 744 745 745 744 753 753 758 744 743 736 726 723 716 730 726 728 723 719 729 735 740 743 742
822 817 812 807 801 795 789 783 777 773 771 769 768 769 770 755 743 741 744 741 740 739 740 740 740 748 746 756 738 742 755 739 727 724 725 716 732 730 710 713 728 733 735 737 742
822 817 812 806 800 793 786 778 772 768 765 764 764 766 766 740 742 738 736 737 739 739 737 734 737 742 745 739 747 758 759 777 731 730 721 728 755 716 708 717 729 728 730 732 736
820 815 809 803 797 790 782 773 766 760 758 758 761 763 761 737 733 725 727 729 733 735 735 734 737 744 744 763 783 780 796 779 755 726 733 730 741 713 708 714 723 723 724 725 730
819 813 807 800 794 787 776 768 760 757 758 758 761 767 746 736 727 725 724 725 729 730 735 738 743 754 764 780 810 794 790 776 770 733 733 732 731 711 709 711 713 717 719 720 722
819 813 805 798 792 786 776 768 770 766 763 770 759 755 747 729 728 720 721 723 725 733 752 742 763 774 761 760 760 767 773 776 752 731 744 741 733 712 703 710 712 715 718 716 713
818 812 805 798 790 784 783 782 783 784 776 751 745 740 737 734 735 714 721 733 734 744 740 754 766 747 740 744 752 759 769 767 744 729 741 735 734 719 709 705 704 707 709 707 707
817 812 804 796 787 784 783 780 777 774 777 744 732 730 723 724 726 719 717 721 733 742 742 756 738 731 743 746 753 755 767 760 759 731 728 731 746 730 707 699 693 695 690 692 697
815 810 804 795 790 786 780 778 774 771 795 762 738 724 719 718 727 701 699 719 725 733 735 741 724 736 740 747 745 771 734 740 745 752 774 735 788 746 721 714 701 690 689 690 691
813 809 804 802 797 790 782 777 773 771 821 745 729 713 712 721 700 694 687 708 727 726 730 737 732 737 743 735 731 748 725 733 734 746 757 753 776 755 725 722 707 689 683 681 682
810 805 801 799 795 784 780 776 774 803 812 755 730 732 725 703 699 690 692 696 701 721 716 723 709 718 724 715 719 717 731 738 749 762 785 762 768 744 741 719 705 687 680 677 682
806 801 798 794 787 783 781 778 808 817 763 759 752 739 735 722 711 703 708 719 733 747 747 728 725 710 707 727 715 721 755 789 787 791 793 752 765 739 710 707 695 689 682 676 673
802 795 787 783 782 784 782 795 812 785 775 753 748 747 744 727 717 711 721 731 714 725 745 756 756 722 701 721 729 732 747 787 799 798 780 751 769 726 694 672 674 677 675 678 678
797 788 782 778 780 784 791 815 806 783 763 764 755 759 751 735 734 730 728 719 715 713 740 747 740 704 700 697 710 724 743 731 764 765 781 766 739 707 687 677 674 677 678 683 683
799 791 781 777 781 785 802 808 789 767 763 761 777 759 765 749 748 746 741 718 715 706 707 719 748 709 696 691 690 712 707 744 767 775 788 772 756 746 709 693 683 686 685 684 681
801 799 777 777 780 793 810 802 777 759 757 761 763 765 758 759 750 752 743 723 712 712 707 709 730 727 711 711 717 715 728 727 743 762 780 789 762 710 707 693 691 689 684 684 683
805 807 778 780 795 800 801 782 765 757 745 752 749 748 751 752 753 749 747 733 709 712 726 712 725 746 716 691 686 692 705 716 743 758 759 762 756 699 701 695 686 694 694 693 696
813 804 776 777 803 801 788 775 766 760 750 746 745 739 740 749 759 746 737 716 709 717 722 718 736 753 729 711 691 700 697 700 719 742 750 764 754 700 701 697 692 697 699 703 708
814 809 788 781 786 788 790 780 771 749 747 743 741 737 746 752 746 749 740 718 708 710 707 717 738 744 763 738 714 704 685 692 714 735 735 740 726 711 710 708 708 704 699 700 706
813 807 798 807 793 793 786 779 774 767 751 748 750 748 748 756 756 758 741 729 708 707 711 729 747 738 727 714 700 685 685 690 707 712 727 717 718 713 714 708 708 700 698 695 697
814 809 804 803 796 792 783 779 774 763 761 760 758 749 748 753 759 764 752 742 733 714 721 728 746 738 722 710 697 690 698 692 725 729 720 713 716 706 704 706 698 693 693 696 700
807 804 806 803 799 795 791 785 773 765 754 749 750 754 750 750 745 740 738 733 726 727 725 735 744 741 735 722 708 727 724 721 736 739 737 731 738 716 718 714 712 713 705 706 711
Wind_Speed
25 25 26 25 26 26 26 26 24 25 25 27 27 26 27 29 28 12 7 12 5 11 10 16 15 17 12 5 10 5 2 8 14 9 5 6 7 1 2 9 5 9 8 18 29
27 27 26 27 27 27 27 28 26 25 25 26 27 27 29 32 21 10 9 10 8 10 14 18 9 11 5 7 7 6 4 11 17 20 11 9 11 10 6 6 3 9 13 32 28
26 26 27 29 29 29 30 30 27 26 25 26 26 26 28 25 6 6 7 9 12 12 11 8 9 4 8 4 5 6 7 11 16 14 13 15 8 6 11 5 8 21 24 19 21
26 27 28 29 29 30 31 31 30 28 25 26 26 25 22 10 5 1 8 5 12 11 10 4 3 4 4 3 5 6 9 6 7 3 4 9 7 6 13 10 14 23 29 21 17
28 29 30 30 30 31 32 31 31 29 27 26 24 23 9 4 10 18 19 10 13 13 10 4 3 3 5 5 9 5 6 11 16 13 5 11 14 11 17 9 18 20 22 22 19
27 29 30 30 31 32 33 33 32 31 30 27 24 18 1 6 8 13 11 12 13 15 7 9 6 4 6 5 4 6 8 14 14 14 8 11 7 7 12 12 20 22 20 20 22
30 31 31 31 32 33 34 34 33 32 31 28 22 8 3 17 3 4 14 12 14 15 5 16 18 1 7 9 6 6 10 14 16 7 8 7 8 8 8 24 23 22 21 20 20
32 33 33 34 34 35 36 36 33 33 34 27 14 4 7 24 22 24 25 23 18 16 18 17 16 5 3 5 9 7 3 6 8 9 11 2 14 9 16 22 22 23 21 20 21
34 35 38 38 37 38 40 35 31 33 22 6 2 5 8 17 10 24 29 22 23 21 21 20 10 7 4 3 6 7 6 12 15 12 8 13 11 7 15 20 21 22 21 21 20
33 34 37 39 39 41 40 34 17 7 8 5 1 2 8 8 8 14 18 27 8 6 5 5 2 3 2 4 6 7 7 7 11 20 12 13 10 5 14 20 23 22 21 21 21
32 36 37 39 38 40 31 17 8 5 13 7 19 13 19 36 36 19 19 9 16 4 8 7 1 7 12 10 9 8 9 13 18 22 4 13 9 7 11 14 17 20 20 21 23
33 36 39 40 41 22 22 3 4 13 11 14 18 21 28 30 16 28 24 5 7 16 6 1 10 16 13 9 11 12 13 18 19 18 7 8 8 9 8 9 12 20 20 23 19
33 35 39 41 32 6 26 8 27 31 4 11 11 10 11 14 21 27 4 4 10 14 14 13 20 12 10 13 13 13 8 15 14 19 3 1 8 7 8 3 6 10 22 23 22
33 35 38 45 9 31 15 24 26 18 5 8 5 7 3 4 7 22 27 10 6 21 17 14 16 11 12 14 11 10 17 16 16 6 6 4 5 8 8 10 7 11 12 18 21
32 35 37 36 19 9 14 25 28 3 4 5 6 1 2 8 4 8 31 7 11 7 8 16 14 9 10 18 12 12 16 17 17 5 3 7 3 8 4 8 6 7 13 19 22
33 35 40 20 18 17 17 25 7 5 6 6 6 15 26 17 5 5 2 6 7 11 3 12 10 14 19 20 12 13 6 1 4 4 3 5 4 12 5 6 5 5 10 18 21
34 36 39 20 6 10 17 4 5 2 6 6 17 16 19 15 7 6 6 3 5 4 4 5 6 11 12 8 11 3 5 5 3 3 7 4 1 14 11 7 8 10 12 19 23
38 39 27 19 12 8 8 5 2 4 7 10 9 16 6 16 15 5 7 9 5 5 5 6 11 8 13 10 11 8 8 6 7 4 7 6 6 15 11 19 16 8 11 9 13
38 27 14 1 4 3 5 3 6 4 4 9 17 4 11 18 6 10 6 8 9 7 9 5 13 6 11 16 8 10 4 9 6 2 3 3 9 10 8 1 11 9 8 9 10
25 14 13 2 8 6 4 5 5 4 8 10 6 4 12 9 10 10 7 6 8 3 4 1 4 11 19 9 17 8 4 1 2 3 7 5 5 6 7 4 8 8 10 6 11
9 4 4 16 16 5 2 6 7 10 8 3 8 7 6 4 4 7 7 8 8 12 3 6 6 13 8 9 12 2 3 2 3 5 6 2 6 4 9 3 8 6 7 11 12
6 3 5 18 3 0 2 5 5 17 21 8 6 4 1 4 5 5 5 5 16 7 6 4 2 5 18 16 8 11 11 7 6 7 3 5 5 4 6 4 10 9 7 9 8
3 3 7 6 2 3 6 7 6 10 12 4 5 1 2 3 4 5 6 10 11 6 6 6 2 5 8 9 4 5 6 6 5 3 8 6 6 3 4 9 10 15 13 9 8
2 3 4 4 1 4 5 7 11 10 7 9 4 6 6 6 2 5 8 8 13 7 11 10 1 5 4 10 8 5 3 7 7 2 5 7 5 3 2 11 7 10 13 10 11
1 4 1 3 4 7 2 5 6 8 5 6 9 13 3 5 7 8 6 12 17 6 9 4 4 1 7 5 8 5 4 7 11 3 3 8 11 4 8 11 9 9 9 12 13
0 3 4 3 4 6 5 5 8 7 4 10 6 16 7 4 4 8 5 3 4 19 4 2 7 4 6 12 13 8 15 12 10 6 3 2 2 6 4 5 13 15 12 10 10
3 5 3 4 4 3 2 11 17 13 9 8 5 5 5 8 12 12 10 11 11 6 5 4 2 1 5 6 6 9 8 9 7 7 3 2 4 8 10 3 4 5 6 7 6
Wind_Direction
6 4 2 357 354 352 350 348 345 344 343 341 341 338 337 332 327 304 244 249 212 215 158 150 182 199 203 229 219 129 167 247 258 230 194 215 125 6 149 134 184 182 147 156 168
2 359 356 354 351 348 346 344 342 340 338 336 336 337 337 332 323 254 296 229 205 206 175 172 188 186 212 201 191 163 190 246 219 253 204 227 141 166 143 137 76 89 109 149 160
0 356 353 350 347 345 343 341 337 335 334 333 332 334 337 332 319 252 317 197 215 223 227 228 230 220 235 250 209 214 221 266 278 236 188 186 160 161 137 214 194 147 147 159 164
359 357 353 348 344 341 338 335 332 331 330 328 329 332 337 338 294 289 355 222 225 227 243 276 261 207 252 310 273 286 267 288 314 313 160 187 136 184 166 200 160 157 156 161 169
357 355 351 347 343 340 334 330 327 325 326 323 326 330 341 5 258 276 288 224 210 215 216 202 259 207 244 267 322 297 304 314 313 312 225 152 192 190 202 144 152 152 156 165 172
356 353 350 346 342 337 332 327 322 321 320 320 319 323 357 273 273 290 257 217 214 208 218 205 216 224 270 258 294 285 313 312 310 301 291 168 223 123 229 155 153 161 171 174 178
355 352 348 345 340 336 330 324 318 315 315 313 312 306 239 240 232 305 283 252 246 212 214 223 235 139 329 317 281 317 337 319 302 306 302 353 309 194 187 156 163 170 176 179 195
354 351 347 343 340 335 329 321 316 310 308 306 303 171 237 274 279 275 257 249 258 237 229 243 243 258 224 274 355 351 37 331 285 356 300 25 262 224 155 154 173 176 184 185 196
350 348 345 341 340 336 329 321 313 304 308 281 184 166 266 283 244 243 245 220 225 240 241 255 253 219 305 55 1 2 273 280 306 303 283 289 259 214 169 167 178 182 187 191 201
347 345 343 339 339 337 328 327 333 20 59 37 299 351 277 273 294 315 282 227 191 203 274 238 208 190 68 89 233 254 270 278 271 286 314 306 258 267 168 172 186 187 191 195 200
344 345 343 338 337 336 334 349 9 352 352 263 271 238 290 294 296 283 289 223 209 163 191 247 164 219 222 199 215 226 255 262 274 280 288 276 281 242 211 186 193 190 193 198 204
343 345 341 338 336 336 357 354 273 306 295 263 255 260 257 266 285 287 279 251 174 215 184 179 217 236 230 232 229 237 255 270 279 276 204 272 274 253 249 235 197 192 197 198 200
340 342 340 338 338 359 335 306 337 346 288 284 244 239 233 211 242 258 187 259 246 224 211 223 236 228 218 240 240 247 227 259 255 282 260 292 311 309 296 248 232 203 204 195 186
336 338 340 341 349 331 313 339 343 352 8 283 288 270 177 221 267 240 245 212 258 217 213 221 249 230 232 239 226 255 248 251 265 293 270 85 268 307 283 304 305 288 187 192 189
332 333 336 341 306 309 310 331 335 51 341 272 280 194 260 176 264 227 238 216 238 222 154 230 228 243 241 240 234 243 256 250 253 208 54 322 61 265 340 309 294 261 205 182 185
329 328 329 333 301 300 330 327 341 49 260 307 343 332 345 329 249 294 105 147 197 218 236 211 216 224 237 253 250 254 246 50 59 104 288 250 128 289 232 221 256 263 159 168 172
325 322 318 297 251 316 322 1 45 146 321 299 332 345 327 345 320 190 234 203 181 156 259 266 245 254 244 260 270 217 60 298 323 340 228 225 59 258 274 209 219 209 177 177 177
324 322 320 278 271 315 349 54 158 264 275 305 325 330 360 355 343 43 336 285 228 152 196 196 263 232 242 193 230 234 170 179 216 211 257 125 228 268 250 268 212 186 166 156 180
327 329 314 50 151 184 68 76 214 239 319 343 327 316 340 336 1 14 301 232 239 185 202 208 255 252 246 248 155 268 185 195 137 37 36 207 288 310 305 239 154 160 132 153 149
328 324 298 108 165 123 73 232 239 243 297 300 291 291 325 319 6 3 350 330 13 109 300 217 319 255 244 257 256 168 200 266 8 158 271 288 283 248 303 245 111 128 144 143 125
324 348 260 155 159 59 163 240 283 263 265 261 293 293 297 4 323 330 321 296 354 328 292 195 149 266 323 224 230 291 293 93 128 137 181 245 272 244 249 320 106 92 118 137 132
349 339 70 160 51 201 207 220 263 294 294 270 224 223 69 340 323 7 321 284 335 7 2 311 216 228 231 259 224 212 231 197 195 237 191 156 268 333 289 50 104 89 70 55 66
336 260 312 187 206 265 285 284 258 277 305 304 285 221 95 336 340 303 324 304 334 343 21 313 327 344 333 275 253 204 181 183 138 6 195 155 246 73 304 92 93 92 87 86 75
18 339 316 37 115 356 338 302 325 323 316 341 289 15 5 352 301 284 339 317 319 344 26 12 213 124 219 251 258 210 175 223 141 184 214 204 207 196 69 116 68 96 86 95 118
150 260 216 312 320 321 257 264 297 340 342 17 343 347 307 2 344 354 348 332 332 9 359 90 300 272 254 300 324 252 152 128 338 6 176 267 195 148 181 149 145 141 144 132 133
217 39 344 275 305 343 339 319 316 317 0 309 350 324 321 339 100 300 311 313 288 311 59 71 269 250 325 344 337 79 32 64 78 347 357 49 75 170 235 281 160 162 160 151 166
317 325 109 281 332 12 304 330 335 334 296 283 331 323 346 345 311 266 237 259 240 244 290 235 184 333 285 317 303 31 356 69 91 28 241 34 356 73 30 39 17 360 30 59 39